CW8504 Weather Reports


time (UTC)temp
C
wind
direction
speed
KPH
gust
KPH
rain 1hr
cm
rain 24hr
cm
rain mn
cm
humidity
%
barometer
mb
20260504020904 16 236 0.0 0.0 0.00 0.00 0.00 12 1012.8
20260504020404 16 236 0.0 0.0 0.00 0.00 0.00 12 1012.8
20260504015904 17 236 0.0 0.0 0.00 0.00 0.00 10 1012.7
20260504014904 17 234 0.0 0.0 0.00 0.00 0.00 8 1012.8
20260504014404 18 229 0.0 0.0 0.00 0.00 0.00 6 1012.9
20260504013904 18 229 0.0 0.0 0.00 0.00 0.00 6 1012.8
20260504012904 19 237 0.0 3.2 0.00 0.00 0.00 6 1012.9
20260504012404 19 228 0.0 3.2 0.00 0.00 0.00 5 1012.8
20260504011404 20 232 3.2 16.1 0.00 0.00 0.00 4 1012.9
20260504010904 20 242 1.6 4.8 0.00 0.00 0.00 4 1013.0
20260504010404 20 223 1.6 4.8 0.00 0.00 0.00 5 1013.0
20260504005904 20 216 0.0 1.6 0.00 0.00 0.00 5 1013.0
20260504005405 20 217 0.0 4.8 0.00 0.00 0.00 4 1013.0
20260504004904 20 248 4.8 19.3 0.00 0.00 0.00 3 1013.0
20260504004404 20 215 0.0 9.7 0.00 0.00 0.00 4 1013.0
20260504003404 21 234 1.6 16.1 0.00 0.00 0.00 5 1013.0
20260504002904 21 249 1.6 4.8 0.00 0.00 0.00 4 1013.0
20260504002404 21 221 3.2 11.3 0.00 0.00 0.00 5 1013.0
20260504001904 21 209 3.2 12.9 0.00 0.00 0.00 7 1013.0
20260504000904 21 236 1.6 11.3 0.00 0.00 0.00 6 1013.1
20260504000404 21 244 3.2 11.3 0.00 0.00 0.00 6 1013.2
20260503235404 21 230 1.6 14.5 0.00 0.00 0.00 6 1013.2
20260503234904 21 229 9.7 19.3 0.00 0.00 0.00 6 1013.3
20260503233404 21 230 11.3 20.9 0.00 0.00 0.00 6 1013.2
20260503232404 21 257 1.6 19.3 0.00 0.00 0.00 7 1013.3
20260503231904 21 252 6.4 19.3 0.00 0.00 0.00 6 1013.3
20260503231404 21 231 3.2 22.5 0.00 0.00 0.00 6 1013.4
20260503230904 21 244 8.0 19.3 0.00 0.00 0.00 7 1013.5
20260503230404 21 236 8.0 19.3 0.00 0.00 0.00 7 1013.4
20260503225904 21 230 11.3 20.9 0.00 0.00 0.00 7 1013.5
20260503225404 21 248 1.6 16.1 0.00 0.00 0.00 6 1013.4
20260503224904 21 241 8.0 22.5 0.00 0.00 0.00 6 1013.3
20260503224404 21 229 8.0 20.9 0.00 0.00 0.00 6 1013.4
20260503223404 20 245 4.8 19.3 0.00 0.00 0.00 8 1013.5
20260503222904 20 224 3.2 19.3 0.00 0.00 0.00 9 1013.5
20260503222404 19 223 1.6 4.8 0.00 0.00 0.00 10 1013.7
20260503221904 18 218 8.0 14.5 0.00 0.00 0.00 9 1013.8
20260503221404 18 238 0.0 1.6 0.00 0.00 0.00 8 1013.8
20260503220404 19 129 0.0 1.6 0.00 0.00 0.00 8 1014.0
20260503215404 19 67 0.0 0.0 0.00 0.00 0.00 8 1014.1
20260503214904 18 67 0.0 0.0 0.00 0.00 0.00 7 1014.2
20260503214404 19 67 0.0 1.6 0.00 0.00 0.00 6 1014.2
20260503213904 19 69 0.0 3.2 0.00 0.00 0.00 7 1014.2
20260503212904 20 236 4.8 16.1 0.00 0.00 0.00 7 1014.3
20260503212404 20 254 0.0 12.9 0.00 0.00 0.00 6 1014.3
20260503211404 21 275 0.0 4.8 0.00 0.00 0.00 6 1014.4
20260503210905 21 141 0.0 3.2 0.00 0.00 0.00 4 1014.4
20260503210405 21 231 0.0 1.6 0.00 0.00 0.00 4 1014.4
20260503205904 21 235 8.0 19.3 0.00 0.00 0.00 6 1014.7
20260503205404 22 205 3.2 14.5 0.00 0.00 0.00 5 1014.5
20260503204904 21 217 3.2 9.7 0.00 0.00 0.00 6 1014.6
20260503203904 21 218 4.8 9.7 0.00 0.00 0.00 4 1014.8
20260503202904 21 224 1.6 19.3 0.00 0.00 0.00 4 1014.8
20260503202404 21 231 8.0 20.9 0.00 0.00 0.00 4 1015.0
20260503201904 21 224 6.4 19.3 0.00 0.00 0.00 6 1015.0
20260503201403 21 216 1.6 16.1 0.00 0.00 0.00 5 1015.0
20260503200907 20 200 8.0 19.3 0.00 0.00 0.00 6 1015.1
20260503200404 20 218 11.3 19.3 0.00 0.00 0.00 4 1015.1
20260503195904 20 199 12.9 25.7 0.00 0.00 0.00 6 1015.1
20260503195404 20 217 11.3 20.9 0.00 0.00 0.00 6 1015.2
20260503194904 20 221 9.7 22.5 0.00 0.00 0.00 6 1015.2
20260503193404 20 204 4.8 19.3 0.00 0.00 0.00 8 1015.3
20260503192904 19 255 3.2 9.7 0.00 0.00 0.00 11 1015.3
20260503192404 19 33 3.2 9.7 0.00 0.00 0.00 8 1015.4
20260503191904 20 254 8.0 22.5 0.00 0.00 0.00 8 1015.5
20260503191404 20 253 4.8 11.3 0.00 0.00 0.00 8 1015.5
20260503190904 20 314 0.0 4.8 0.00 0.00 0.00 10 1015.5
20260503185904 21 349 0.0 4.8 0.00 0.00 0.00 6 1015.7
20260503185403 21 0 3.2 9.7 0.00 0.00 0.00 4 1015.7
20260503184904 21 150 0.0 0.0 0.00 0.00 0.00 6 1015.8
20260503184404 20 150 0.0 1.6 0.00 0.00 0.00 4 1015.9
20260503183905 20 142 1.6 8.0 0.00 0.00 0.00 9 1016.0
20260503182904 20 226 4.8 11.3 0.00 0.00 0.00 10 1016.0
20260503182404 20 231 3.2 8.0 0.00 0.00 0.00 9 1016.1
20260503181904 20 178 1.6 8.0 0.00 0.00 0.00 9 1016.2
20260503180904 19 290 0.0 1.6 0.00 0.00 0.00 10 1016.4
20260503180411 19 290 0.0 0.0 0.00 0.00 0.00 12 1016.5
20260503175904 18 290 0.0 0.0 0.00 0.00 0.00 11 1016.5
20260503174403 18 301 0.0 0.0 0.00 0.00 0.00 12 1016.8
20260503173904 17 303 0.0 0.0 0.00 0.00 0.00 14 1016.9
20260503173404 17 327 0.0 3.2 0.00 0.00 0.00 15 1017.0
20260503172404 17 14 0.0 0.0 0.00 0.00 0.00 18 1017.1
20260503171904 16 15 0.0 0.0 0.00 0.00 0.00 21 1017.1
20260503171404 16 15 0.0 0.0 0.00 0.00 0.00 24 1017.1
20260503170904 15 16 0.0 0.0 0.00 0.00 0.00 25 1017.3
20260503170404 15 15 0.0 0.0 0.00 0.00 0.00 25 1017.3
20260503150904 6 32 0.0 0.0 0.00 0.00 0.00 49 1018.9
20260503131404 -1 207 0.0 0.0 0.00 0.00 0.00 74 1019.7
20260503130904 -1 207 0.0 0.0 0.00 0.00 0.00 73 1019.6
20260503130411 -1 207 0.0 0.0 0.00 0.00 0.00 73 1019.5
20260503110404 -1 208 0.0 0.0 0.00 0.00 0.00 69 1019.2
20260503090404 0 208 0.0 0.0 0.00 0.00 0.00 63 1018.7
20260503081403 1 208 0.0 0.0 0.00 0.00 0.00 61 1018.8
20260503080904 1 208 0.0 0.0 0.00 0.00 0.00 61 1018.8
20260503072904 1 208 0.0 0.0 0.00 0.00 0.00 58 1018.8
20260503072404 1 208 0.0 0.0 0.00 0.00 0.00 57 1018.8
20260503071904 2 208 0.0 0.0 0.00 0.00 0.00 57 1018.8
20260503071404 2 208 0.0 0.0 0.00 0.00 0.00 57 1018.8
20260503070904 2 208 0.0 0.0 0.00 0.00 0.00 57 1018.8
20260503070404 2 208 0.0 0.0 0.00 0.00 0.00 57 1018.8
20260503054904 4 208 0.0 0.0 0.00 0.00 0.00 52 1018.7
20260503054404 4 208 0.0 0.0 0.00 0.00 0.00 52 1018.7
20260503053904 5 208 0.0 0.0 0.00 0.00 0.00 53 1018.6
20260503052903 5 208 0.0 0.0 0.00 0.00 0.00 53 1018.6
20260503052404 5 208 0.0 0.0 0.00 0.00 0.00 52 1018.6
20260503050403 6 208 0.0 0.0 0.00 0.00 0.00 51 1018.6
20260503045904 6 208 0.0 0.0 0.00 0.00 0.00 51 1018.5
20260503044404 7 208 0.0 0.0 0.00 0.00 0.00 48 1018.6
20260503043907 7 208 0.0 0.0 0.00 0.00 0.00 47 1018.6
20260503043404 7 208 0.0 0.0 0.00 0.00 0.00 47 1018.6
20260503042405 8 208 0.0 0.0 0.00 0.00 0.00 45 1018.5
20260503041904 8 208 0.0 0.0 0.00 0.00 0.00 43 1018.6
20260503041404 8 208 0.0 0.0 0.00 0.00 0.00 42 1018.6
20260503035904 9 208 0.0 0.0 0.00 0.00 0.00 40 1018.6
20260503035404 10 208 0.0 0.0 0.00 0.00 0.00 41 1018.5
20260503034905 10 208 0.0 0.0 0.00 0.00 0.00 37 1018.5
20260503033904 10 208 0.0 0.0 0.00 0.00 0.00 37 1018.3
20260503033404 11 208 0.0 0.0 0.00 0.00 0.00 36 1018.2
20260503032904 11 208 0.0 0.0 0.00 0.00 0.00 34 1018.1
20260503032404 11 208 0.0 0.0 0.00 0.00 0.00 28 1018.1
20260503031404 12 208 0.0 0.0 0.00 0.00 0.00 27 1018.0
20260503030904 12 208 1.6 4.8 0.00 0.00 0.00 25 1018.0
20260503030404 12 210 0.0 4.8 0.00 0.00 0.00 24 1017.8
20260503025904 12 216 0.0 1.6 0.00 0.00 0.00 24 1017.8
20260503023904 13 217 0.0 0.0 0.00 0.00 0.00 21 1017.6
20260503023404 14 217 0.0 4.8 0.00 0.00 0.00 21 1017.6
20260503022904 15 244 0.0 0.0 0.00 0.00 0.00 20 1017.5
20260503022404 15 244 0.0 0.0 0.00 0.00 0.00 21 1017.5
20260503021903 15 244 0.0 0.0 0.00 0.00 0.00 20 1017.3
20260503021404 15 244 0.0 0.0 0.00 0.00 0.00 20 1017.4